Helicity
121 121 121 123 118 110 104 88 104 106 135 124 135 113 118 110 137 152 132 134 206 165 198 234 82 64 79 161 247 319 357 345 315 328 353 360 249 249 243 212 205 172 156
161 158 181 184 176 148 120 85 97 117 58 62 124 149 150 153 140 177 183 230 251 234 142 84 94 134 101 215 269 326 335 337 365 334 278 283 279 251 242 204 195 162 157
229 227 222 248 228 211 211 219 229 175 155 139 132 162 207 107 123 173 185 234 209 215 87 58 105 200 248 294 302 343 342 309 364 310 290 255 251 238 199 187 215 185 170
214 251 253 272 290 287 255 235 232 197 186 164 147 131 123 87 90 109 94 117 160 118 115 150 214 235 263 306 342 341 336 350 344 283 294 287 233 206 206 199 195 193 164
193 180 206 217 215 229 257 248 238 205 211 203 141 77 71 76 100 133 146 184 215 205 200 208 212 243 301 341 365 354 338 339 277 285 303 276 205 183 217 232 201 189 154
173 150 103 152 174 212 240 263 238 196 161 151 164 123 112 136 127 190 274 217 205 273 304 346 390 412 419 438 459 414 334 322 339 329 272 213 185 210 228 225 204 195 207
156 107 121 154 170 193 188 175 204 164 134 131 111 117 151 172 209 276 345 298 303 339 404 453 477 445 472 502 530 471 442 434 352 272 215 197 219 250 240 216 193 196 188
134 137 132 157 153 139 149 143 159 154 153 180 201 251 291 272 242 276 336 343 381 399 414 404 429 433 408 439 439 440 403 353 282 227 211 244 242 225 185 181 186 175 143
167 170 176 170 154 161 194 283 331 304 313 320 321 328 290 266 285 393 433 467 525 541 470 451 465 488 477 459 446 425 375 310 255 275 284 261 246 211 183 219 216 204 202
195 185 221 240 276 304 282 316 371 392 391 386 420 388 367 364 377 360 422 468 504 494 509 534 537 491 447 412 404 350 300 256 241 267 255 242 206 184 224 195 204 212 193
351 363 342 315 330 323 344 356 392 413 449 478 524 555 562 487 410 384 386 357 372 425 481 482 454 402 359 346 345 333 309 269 281 267 251 271 255 257 238 221 221 203 182
419 446 399 361 332 326 364 397 379 415 504 506 544 586 582 547 455 402 390 390 381 391 383 372 366 320 318 293 293 287 286 263 253 289 329 291 264 243 267 245 200 184 178
464 489 386 340 327 328 368 362 382 402 428 437 464 448 382 388 479 499 463 435 422 404 370 340 276 260 273 307 310 273 256 298 301 244 217 211 235 252 194 168 167 163 154
339 317 313 352 393 426 413 371 367 367 372 329 310 302 339 365 389 395 405 411 392 374 343 324 319 337 349 311 285 265 232 196 184 200 201 207 189 168 164 175 174 172 174
337 325 367 393 394 452 491 418 392 352 230 187 207 235 267 314 331 329 333 356 362 349 338 315 311 286 263 246 236 204 196 217 217 217 198 182 174 174 183 181 176 181 182
339 335 324 333 329 356 404 489 456 348 339 338 330 315 358 349 341 333 304 285 270 248 261 272 286 269 260 243 223 214 212 200 199 191 181 177 187 201 205 192 177 182 208
435 418 380 378 374 385 389 395 422 462 427 371 332 311 279 228 233 228 244 244 251 237 243 235 241 236 227 224 213 202 199 200 194 185 186 194 206 214 206 223 223 215 197
482 444 372 360 369 351 325 272 224 230 282 293 292 261 282 281 282 272 236 206 221 212 203 201 197 196 203 206 207 209 204 195 187 189 195 199 227 226 228 224 213 192 169
427 404 384 372 356 348 302 276 240 203 204 223 250 304 301 314 309 302 269 219 202 186 178 178 190 201 209 211 213 205 204 209 216 222 217 223 229 229 217 201 181 155 136
454 459 430 370 323 287 232 199 192 203 220 236 250 241 213 200 207 193 182 182 190 200 206 218 231 236 238 230 215 221 218 215 212 213 216 211 204 200 196 180 152 134 114
262 265 258 244 231 213 211 217 213 217 215 218 225 213 213 182 188 199 202 221 232 237 245 240 227 213 199 202 193 192 185 181 181 185 188 186 183 176 150 136 114 96 81
186 185 193 192 175 183 179 171 172 173 175 183 193 226 245 216 211 213 226 231 225 213 198 187 187 180 174 172 168 163 158 157 160 160 157 148 139 127 112 95 83 74 61
121 129 132 135 135 148 160 173 187 200 205 206 200 202 211 212 210 203 195 175 168 166 153 150 146 140 135 125 121 119 117 117 116 107 104 102 87 84 81 69 63 56 48
98 114 124 137 144 156 163 169 178 204 200 198 185 171 168 162 158 153 143 141 133 125 115 114 111 110 105 95 88 82 74 76 70 68 67 57 54 53 52 46 41 32 27
113 119 129 127 135 137 143 146 142 138 140 129 118 114 115 115 117 116 113 112 110 106 102 90 85 77 65 55 48 44 47 46 58 49 42 31 24 19 27 28 24 22 32
106 108 99 95 100 96 104 101 99 98 102 102 98 95 90 89 94 98 100 94 92 82 72 69 60 50 43 44 41 44 40 31 28 23 27 26 24 25 21 11 15 39 60
Wind_Speed
32 32 31 32 33 34 36 38 40 37 35 38 42 42 44 43 47 49 54 61 64 61 76 63 57 42 55 57 47 41 42 43 50 46 42 40 44 49 48 49 51 52 53
29 30 32 28 29 34 35 32 29 32 35 32 29 37 46 56 50 55 58 56 59 72 44 33 48 45 45 41 36 39 41 42 46 50 43 46 46 47 50 55 54 55 54
27 29 31 30 30 34 35 33 32 33 33 32 26 27 27 39 59 58 50 47 35 35 38 43 47 44 39 39 37 37 38 40 44 45 51 49 49 51 53 55 55 57 55
26 30 32 35 38 35 33 32 32 33 33 33 32 29 23 19 25 32 34 33 32 28 35 41 43 40 38 38 36 35 36 38 43 48 52 53 53 53 57 61 61 58 63
21 25 31 26 25 26 28 30 32 35 36 36 37 36 37 37 38 39 35 34 37 39 40 40 40 36 34 33 32 32 35 41 46 51 56 57 59 62 64 61 66 66 67
20 27 21 20 22 25 26 30 34 35 38 38 38 41 45 48 43 38 35 38 37 38 39 37 34 27 27 27 31 35 39 43 48 53 55 61 63 63 61 67 69 73 78
25 23 23 22 23 23 25 24 25 30 33 33 34 35 37 38 39 32 32 36 36 34 32 28 28 27 27 31 33 35 38 44 46 50 58 61 63 60 64 70 70 74 77
27 27 28 26 25 22 24 24 26 29 30 30 31 31 33 35 32 31 29 33 32 30 28 26 27 29 31 31 33 37 42 45 48 51 54 57 58 60 63 68 72 76 76
30 33 31 30 33 27 26 29 30 30 31 33 33 33 33 35 28 24 25 26 27 28 28 27 28 30 30 31 36 40 44 47 47 51 54 56 58 61 63 68 76 82 87
30 29 30 30 30 30 30 34 38 34 32 31 32 32 29 26 20 21 21 22 24 26 29 31 30 30 30 33 38 42 51 51 52 56 57 59 60 61 64 65 74 81 82
31 28 25 23 23 25 29 31 31 32 30 30 28 28 25 21 19 19 20 25 26 28 30 31 32 31 33 37 41 48 52 50 54 57 61 64 64 66 66 65 65 71 78
23 25 23 20 19 21 23 28 29 28 27 25 21 21 23 25 24 25 24 22 22 24 29 31 33 34 37 41 47 47 50 53 58 64 69 72 73 73 71 69 69 71 70
15 16 18 19 21 24 25 26 27 26 22 20 20 22 24 27 28 26 23 23 25 28 31 32 33 36 41 48 49 50 55 62 67 73 76 76 73 71 72 72 72 71 72
11 9 11 18 20 22 25 27 26 24 23 24 25 28 27 27 28 28 28 28 30 32 34 38 42 45 49 51 55 58 64 67 70 73 73 72 71 73 75 72 76 77 80
10 11 13 16 19 22 27 28 27 30 27 25 26 25 27 31 31 30 32 35 37 37 39 45 53 57 61 63 64 65 67 68 71 70 74 77 76 75 74 73 75 79 84
13 16 17 19 20 22 23 26 31 27 25 24 25 24 27 25 27 31 33 34 36 42 51 57 61 63 67 69 70 71 70 71 71 72 74 74 76 76 78 78 78 81 88
22 24 24 23 22 22 21 24 24 29 29 28 27 27 27 27 31 34 38 39 46 54 61 63 64 64 65 66 68 69 71 70 70 73 75 76 76 78 81 82 82 85 86
23 22 24 26 22 22 22 23 25 28 29 32 33 33 34 36 39 42 45 52 59 61 61 62 63 62 63 66 67 69 72 74 76 77 79 79 79 81 85 85 84 84 83
25 25 21 22 26 27 28 29 31 31 32 33 36 41 43 44 48 53 55 57 60 60 61 61 61 63 65 66 69 73 76 79 81 83 83 81 80 82 83 82 81 79 78
30 29 27 28 31 34 36 36 38 37 38 41 45 49 51 52 55 56 56 56 58 59 61 62 64 66 70 73 77 79 82 84 84 84 84 82 80 78 79 78 75 74 72
32 34 34 34 36 37 39 41 41 41 41 43 47 50 51 52 54 56 57 59 61 63 65 68 70 73 75 77 79 82 82 84 84 84 82 77 74 74 71 70 70 67 66
35 37 38 38 38 39 40 40 41 43 44 46 49 52 53 55 57 59 62 64 65 66 67 70 72 74 76 77 79 80 84 83 81 77 74 71 68 68 68 66 63 62 61
38 39 39 40 41 41 43 45 46 47 49 51 52 55 57 59 61 62 64 64 65 67 68 70 72 73 72 73 73 73 77 75 72 69 68 66 65 63 62 61 58 58 57
42 42 42 43 44 45 46 47 48 50 52 54 55 57 59 59 61 62 63 64 66 67 67 68 69 69 69 70 69 67 66 64 63 61 60 60 59 56 54 54 53 53 54
44 44 44 45 46 47 49 50 51 53 54 56 56 57 58 59 61 62 63 65 65 66 67 66 65 65 66 70 68 67 64 61 56 56 54 52 50 48 47 46 47 52 58
46 46 47 47 48 50 51 52 53 54 54 55 56 57 59 60 61 63 63 64 66 66 65 63 63 66 67 65 63 61 60 57 53 50 47 42 39 40 42 45 55 60 57
Wind_Direction
189 190 192 194 196 198 202 206 212 221 231 229 248 255 260 256 264 268 275 284 286 288 289 283 287 290 279 285 290 290 291 291 295 302 308 313 315 319 323 325 325 322 321
197 198 201 209 212 210 215 226 229 229 225 235 248 253 261 266 266 272 279 283 286 296 288 283 286 294 292 291 289 288 291 294 300 299 304 310 315 319 322 322 323 323 322
226 218 217 225 228 222 224 229 232 230 236 244 254 248 250 250 272 276 277 280 281 276 283 287 292 294 292 291 290 292 296 296 303 303 308 312 316 320 321 323 323 323 323
231 219 224 225 223 226 232 235 239 238 243 245 248 252 258 260 252 276 278 274 280 279 284 291 294 292 290 292 294 295 296 298 303 306 310 311 315 319 322 321 321 322 321
232 211 208 220 229 244 250 251 251 253 256 256 257 257 269 273 276 279 281 278 279 283 287 294 297 295 294 296 294 295 296 300 303 306 309 312 315 317 319 322 320 322 321
225 210 228 235 254 263 263 269 269 264 267 267 260 259 268 276 275 272 272 277 278 282 288 294 295 299 299 300 302 301 300 300 304 307 310 312 315 317 320 320 320 321 322
239 241 246 247 259 267 275 274 267 268 274 269 269 269 267 273 277 271 272 282 281 282 286 286 296 302 303 305 308 308 309 310 311 311 311 313 315 318 320 319 319 319 318
247 250 258 258 262 271 281 282 286 284 277 276 275 274 274 280 277 277 280 287 287 289 285 286 291 297 301 303 305 306 310 312 313 315 316 316 318 320 320 319 319 319 319
256 258 259 263 273 279 286 295 300 297 294 291 291 287 284 288 283 276 285 288 293 295 296 297 297 301 305 306 306 308 310 313 317 319 320 320 321 321 321 321 319 319 319
264 263 267 271 277 286 295 298 302 304 303 302 301 299 295 292 285 284 286 287 290 296 302 306 307 307 308 309 310 309 310 312 314 317 319 320 322 321 323 321 320 318 319
274 278 275 272 277 292 301 304 305 307 308 307 307 311 311 306 300 297 295 294 293 298 300 304 310 312 313 314 313 313 313 316 317 318 318 320 320 321 322 322 321 319 318
276 282 280 280 292 300 302 308 311 312 310 309 311 317 321 320 318 316 312 309 305 302 305 310 313 314 315 317 318 319 320 319 318 317 317 317 318 318 320 320 320 319 318
278 276 283 292 304 309 308 309 312 315 312 309 309 311 315 320 324 329 328 324 320 316 314 314 315 316 317 319 320 320 320 317 317 316 316 316 318 319 320 319 320 320 319
272 276 297 300 312 318 320 318 317 315 310 306 305 306 312 316 317 318 319 321 321 320 319 317 317 318 319 318 318 318 318 318 318 317 318 319 320 319 319 320 319 320 319
298 304 311 312 314 331 335 329 324 320 317 312 312 312 310 311 316 317 316 315 316 317 317 316 314 313 313 314 315 316 318 319 319 319 318 317 318 319 319 320 319 319 318
304 314 313 313 321 330 335 337 346 342 340 337 332 327 330 333 331 327 325 324 323 320 316 314 313 313 312 313 313 314 317 318 319 319 319 319 318 318 318 319 319 318 318
319 320 314 315 317 322 331 330 332 352 4 1 351 346 342 337 333 329 328 327 325 321 316 315 314 315 316 317 316 317 317 320 321 320 319 318 317 317 317 317 318 318 317
328 339 337 324 326 330 332 338 334 329 328 335 343 340 340 338 336 331 326 322 319 321 319 318 317 319 319 319 319 319 320 320 320 319 318 317 316 316 316 316 317 317 318
352 358 358 0 347 341 340 338 336 331 333 332 331 334 334 334 331 328 327 324 322 322 322 321 322 322 321 321 321 320 319 319 318 318 317 316 316 315 315 315 316 317 318
11 6 359 351 342 336 333 333 330 330 329 327 325 324 325 326 325 326 328 328 326 325 325 324 324 323 322 321 319 319 318 318 318 317 316 315 315 315 315 316 317 318 319
354 354 355 353 344 339 338 336 333 333 332 331 331 332 332 330 329 329 328 328 327 326 325 324 322 322 321 321 320 319 318 318 318 317 317 317 317 316 317 318 318 319 320
352 349 347 345 344 343 343 342 340 338 336 333 333 334 334 331 329 328 328 327 327 326 326 325 324 323 323 322 322 321 319 319 319 320 319 319 319 319 319 319 320 321 321
347 349 348 347 346 344 342 340 338 336 335 333 332 331 331 330 329 328 328 328 328 328 328 328 327 326 327 327 326 325 323 323 323 323 322 322 321 321 322 321 322 322 322
350 349 347 346 344 342 341 340 339 338 336 334 333 332 331 331 331 331 331 331 330 330 330 330 330 330 331 331 331 331 330 329 328 327 327 325 324 325 325 325 325 324 322
350 349 348 346 344 343 341 340 338 337 336 334 334 334 334 333 333 333 333 333 333 333 333 333 334 334 334 332 332 332 333 333 333 332 331 330 330 330 330 331 330 324 311
350 349 347 346 345 343 341 340 339 339 339 339 338 338 337 336 335 335 336 336 335 335 335 336 336 335 335 335 336 337 337 337 337 338 338 339 340 340 338 333 317 291 273